Location: Unspecified
(52.4292°N, 19.3359°E)
Time: 00:40:44
(UTC+02:00)

SR - Pass Details

Date: 28 May 2024
Orbit: 580 x 858 km, 66.7° (Epoch: 12 June)

Event Time Altitude Azimuth Distance (km) Brightness Sun altitude
Rises 20:46:28 0° 292° (WNW) 3,045 ? -0.3°
Reaches altitude 10° 20:49:55 10° 317° (NW) 2,068 ? -0.7°
Maximum altitude 20:52:26 14° 350° (N) 1,759 ? -1.0°
Drops below altitude 10° 20:54:52 10° 23° (NNE) 1,992 ? -1.3°
Sets 20:58:06 0° 49° (NE) 2,857 ? -1.7°
